Meteopurmerend
purmerend
Purmerend - Baaienwijk



My webcam  My webcam


waarschuwing voor Onweer Meer informatie blitzortung!


Regen radar Meer informatie rain snow radar


Bezoek onze andere website:

CandyAppleRed WebdesignWebdesign Purmerend Candy Apple Red

MeteopurmerendBlog

Template documentation
and downloads



Onweer van: 26-07-2021 13:00 tot: 21:00 waarschuwing voor: Onweer niveau: Geel info button
Enkele onweersbuien, lokaal met hagel en veel neerslag in korte tijd.Kans op blikseminslag, hagel en veel neerslag in korte tijd.Verkeer en buitenactiviteiten kunnen hinder ondervinden.Mijd open water en open gebied, schuil niet onder bomen.Volg weerberichten en waarschuwingen.

15 daagse weersverwachting Châtelet (BE)

  • Overzicht
  • Per uur
  • 15 dagen
  • Extra
  • Vergelijk
  • Kaarten
  • Dagkaart
  • Meer »
  • Info
  • Statistieken
  • Directe link
    Temp 6h Neerslag Wind  
 06:04     21:34    Daglengte: 15:30 Vandaag
20:00
18°
3.5 mm
3
warningclass
 06:05     21:33    Daglengte: 15:28 Morgen
02:00
16°
1.0 mm
2
08:00
17°
 
3
14:00
19°
2.1 mm
5
20:00
18°
 
4
 06:07     21:31    Daglengte: 15:24 Woensdag 28 Jul
02:00
16°
 
4
08:00
15°
 
5
14:00
19°
3.5 mm
7
20:00
19°
4.2 mm
4
 06:08     21:30    Daglengte: 15:22 Donderdag 29 Jul
02:00
15°
4.5 mm
5
08:00
14°
2.2 mm
6
Locatie info
Region: Wallonien
Latitude: 50.4042°N
Longitude: 4.5237°E
118 masl
Postcode: 6200
Temp/Neerslag /Baro Onweer/Dauwpunt
    Temp Baro 1h Neerslag Dauwpunt Wind UV Bewolking  
 06:04     21:34    Daglengte: 15:30 Vandaag
15:00
20°
1010.8 hPa
48%
14.0°
4
Windvlaag: 3.9 m/s
81%
16:00
20°
1010.9 hPa 0.4 mm
82%
13.6°
5
Windvlaag: 4.4 m/s
86%
17:00
19°
1011.0 hPa 0.6 mm
82%
13.8°
4
Windvlaag: 5.7 m/s
83%
18:00
19°
1011.0 hPa 0.8 mm
82%
13.5°
4
Windvlaag: 4.4 m/s
63%
19:00
19°
1010.9 hPa 0.8 mm
82%
15.0°
3
Windvlaag: 4.2 m/s
59% warningclass
20:00
18°
1011.1 hPa 0.9 mm
82%
15.5°
3
Windvlaag: 3.4 m/s
61% warningclass
21:00
18°
1011.5 hPa
82%
15.7°
2
Windvlaag: 2.8 m/s
55%
22:00
17°
1012.0 hPa 0.5 mm
82%
15.6°
2
Windvlaag: 3.2 m/s
58% warningclass
23:00
17°
1012.5 hPa 0.5 mm
73%
15.5°
3
Windvlaag: 4.4 m/s
49%
 06:05     21:33    Daglengte: 15:28 Morgen
00:00
16°
1012.7 hPa
70%
15.3°
3
Windvlaag: 4.5 m/s
16%
01:00
16°
1012.7 hPa
22%
15.1°
3
Windvlaag: 5 m/s
12%
02:00
16°
1012.6 hPa
14%
15.0°
2
Windvlaag: 4.7 m/s
21%
03:00
15°
1012.4 hPa
14%
14.9°
3
Windvlaag: 5.2 m/s
24%
04:00
16°
1012.1 hPa
14%
14.9°
3
Windvlaag: 5.6 m/s
75%
05:00
16°
1011.9 hPa
15%
14.8°
3
Windvlaag: 5.9 m/s
85%
06:00
16°
1011.6 hPa
14%
14.7°
3
Windvlaag: 6.2 m/s
70%
07:00
16°
1011.6 hPa
14%
15.0°
3
Windvlaag: 6.2 m/s
76%
08:00
17°
1011.6 hPa
22%
15.3°
3
Windvlaag: 6.2 m/s
85%
09:00
17°
1011.8 hPa
64%
15.0°
4
Windvlaag: 6.8 m/s
86%
10:00
18°
1012.0 hPa
21%
15.0°
4
Windvlaag: 6.1 m/s
61%
11:00
19°
1011.9 hPa
81%
14.8°
4
Windvlaag: 6.4 m/s
71%
12:00
20°
1011.8 hPa 0.4 mm
82%
15.5°
4
Windvlaag: 6.3 m/s
51%
13:00
19°
1011.7 hPa 1.1 mm
82%
14.3°
5
Windvlaag: 6.3 m/s
61%
14:00
19°
1011.3 hPa 0.6 mm
82%
16.3°
5
Windvlaag: 7.2 m/s
55%
15:00
20°
1011.0 hPa
36%
16.7°
5
Windvlaag: 8.2 m/s
67%
16:00
20°
1010.8 hPa
24%
16.0°
5
Windvlaag: 8.3 m/s
67%
17:00
20°
1010.7 hPa
79%
15.3°
5
Windvlaag: 8.8 m/s
77%
18:00
19°
1010.6 hPa
82%
15.0°
5
Windvlaag: 7.9 m/s
62%
19:00
19°
1010.5 hPa
82%
14.7°
5
Windvlaag: 7.7 m/s
72%
20:00
18°
1010.5 hPa
76%
14.6°
4
Windvlaag: 7.7 m/s
64%
21:00
17°
1010.6 hPa
75%
14.8°
4
Windvlaag: 7.6 m/s
72%
22:00
17°
1010.9 hPa
17%
14.9°
4
Windvlaag: 7.8 m/s
66%
23:00
16°
1011.1 hPa
14%
15.0°
4
Windvlaag: 7.8 m/s
64%
 06:07     21:31    Daglengte: 15:24 Woensdag 28 Jul
00:00
16°
1011.0 hPa
17%
15.3°
3
Windvlaag: 8.3 m/s
66%
01:00
16°
1010.9 hPa
23%
15.2°
3
Windvlaag: 8.2 m/s
75%
02:00
16°
1010.6 hPa
19%
15.3°
4
Windvlaag: 7.9 m/s
46%
03:00
16°
1010.3 hPa
17%
14.7°
4
Windvlaag: 8.1 m/s
44%
04:00
16°
1010.4 hPa
78%
13.8°
4
Windvlaag: 7.5 m/s
63%
05:00
15°
1010.2 hPa
82%
13.5°
4
Windvlaag: 7.9 m/s
80%
06:00
15°
1010.2 hPa
73%
13.3°
4
Windvlaag: 8 m/s
64%
07:00
15°
1010.4 hPa
15%
13.5°
5
Windvlaag: 8.5 m/s
66%
08:00
15°
1010.8 hPa
18%
13.1°
5
Windvlaag: 8.2 m/s
71%
09:00
15°
1010.9 hPa
16%
13.3°
6
Windvlaag: 8.7 m/s
30%
10:00
16°
1011.1 hPa
14%
13.8°
6
Windvlaag: 9.2 m/s
62%
11:00
17°
1010.9 hPa 1.1 mm
25%
11.9°
6
Windvlaag: 9.3 m/s
46%
12:00
18°
1011.0 hPa 1.1 mm
25%
12.2°
6
Windvlaag: 8.3 m/s
66%
13:00
18°
1010.8 hPa 1.3 mm
21%
12.1°
7
Windvlaag: 9.3 m/s
65%
14:00
19°
1010.7 hPa
22%
12.3°
7
Windvlaag: 9.5 m/s
21%
15:00
20°
1010.7 hPa
28%
13.5°
6
Windvlaag: 8.9 m/s
37%
16:00
21°
1010.7 hPa 1.0 mm
33%
11.4°
7
Windvlaag: 8 m/s
56%
17:00
21°
1010.5 hPa
37%
10.4°
6
Windvlaag: 7.9 m/s
52%
18:00
19°
1010.7 hPa 1.0 mm
85%
10.4°
5
Windvlaag: 6.9 m/s
32%
19:00
19°
1010.5 hPa 1.1 mm
82%
10.9°
5
Windvlaag: 6.2 m/s
50%
20:00
19°
1010.3 hPa 1.0 mm
21%
10.9°
4
Windvlaag: 6.1 m/s
30%
21:00
18°
1010.5 hPa 1.2 mm
29%
11.7°
4
Windvlaag: 5.7 m/s
58%
22:00
17°
1010.5 hPa
21%
11.2°
3
Windvlaag: 6.6 m/s
37%
23:00
16°
1010.9 hPa 1.2 mm
21%
13.7°
4
Windvlaag: 7.4 m/s
74%
 06:08     21:30    Daglengte: 15:22 Donderdag 29 Jul
00:00
15°
1011.1 hPa 1.1 mm
21%
12.2°
4
Windvlaag: 6.5 m/s
82%
01:00
15°
1010.9 hPa
21%
11.6°
4
Windvlaag: 7.2 m/s
61%
02:00
15°
1010.8 hPa 1.1 mm
21%
11.1°
5
Windvlaag: 8.3 m/s
81%
03:00
15°
1010.4 hPa 1.0 mm
21%
10.4°
5
Windvlaag: 9.4 m/s
92%
04:00
14°
1010.2 hPa 1.1 mm
21%
10.7°
5
Windvlaag: 9.6 m/s
81%
05:00
14°
1010.2 hPa
21%
10.5°
5
Windvlaag: 9.5 m/s
58%
06:00
14°
1010.5 hPa
21%
10.9°
5
Windvlaag: 9.4 m/s
60%
07:00
14°
1010.8 hPa
21%
10.9°
5
Windvlaag: 8.6 m/s
34%
08:00
14°
1011.0 hPa
21%
10.3°
6
Windvlaag: 9.4 m/s
61%
09:00
15°
1012.4 hPa
21%
10.2°
5
Windvlaag: 12.3 m/s
68%
10:00
15°
1012.4 hPa
21%
10.5°
5
Windvlaag: 12.1 m/s
61%
11:00
16°
1012.7 hPa
21%
9.8°
5
Windvlaag: 12 m/s
73%
12:00
17°
1012.8 hPa 1.0 mm
90%
8.2°
6
Windvlaag: 12.2 m/s
61%
13:00
18°
1012.9 hPa
25%
7.7°
6
Windvlaag: 12.1 m/s
63%
14:00
19°
1012.7 hPa
22%
8.3°
6
Windvlaag: 12.4 m/s
100%
Temp/Neerslag /Baro Onweer/Dauwpunt
    Temp Baro Neerslag Dauwpunt Wind Bewolking  
 06:04     21:34    Daglengte: 15:30 Vandaag
17:00
19°
1011.0 hPa 1.0 mm 13.8°
4
83%
20:00
18°
1011.1 hPa 2.5 mm 15.5°
3
61% warningclass
23:00
17°
1012.5 hPa 1.0 mm 15.5°
3
49%
 06:05     21:33    Daglengte: 15:28 Morgen
02:00
16°
1012.6 hPa   15.0°
2
21%
05:00
16°
1011.9 hPa   14.8°
3
85%
08:00
17°
1011.6 hPa   15.3°
3
85%
11:00
19°
1011.9 hPa   14.8°
4
71%
14:00
19°
1011.3 hPa 2.1 mm 16.3°
5
55%
17:00
20°
1010.7 hPa   15.3°
5
77%
20:00
18°
1010.5 hPa   14.6°
4
64%
23:00
16°
1011.1 hPa   15.0°
4
64%
 06:07     21:31    Daglengte: 15:24 Woensdag 28 Jul
02:00
16°
1010.6 hPa   15.3°
4
46%
05:00
15°
1010.2 hPa   13.5°
4
80%
08:00
15°
1010.8 hPa   13.1°
5
71%
11:00
17°
1010.9 hPa 1.1 mm 11.9°
6
46%
14:00
19°
1010.7 hPa 2.4 mm 12.3°
7
21%
17:00
21°
1010.5 hPa 1.0 mm 10.4°
6
52%
20:00
19°
1010.3 hPa 3.1 mm 10.9°
4
30%
23:00
16°
1010.9 hPa 2.4 mm 13.7°
4
74%
 06:08     21:30    Daglengte: 15:22 Donderdag 29 Jul
02:00
15°
1010.8 hPa 2.1 mm 11.1°
5
81%
05:00
14°
1010.2 hPa 2.2 mm 10.5°
5
58%
08:00
14°
1011.0 hPa   10.3°
6
61%
11:00
16°
1012.7 hPa   9.8°
5
73%
14:00
19°
1012.7 hPa 2.9 mm 8.3°
6
100%
17:00
20°
1012.9 hPa 11.2 mm 11.1°
6
1%
20:00
17°
1013.0 hPa 11.3 mm 11.9°
4
1%
23:00
13°
1013.6 hPa 11.3 mm 10.0°
3
1%
 06:09     21:28    Daglengte: 15:19 Vrijdag 30 Jul
02:00
12°
1013.5 hPa 11.3 mm 9.7°
3
1%
05:00
11°
1013.2 hPa 11.3 mm 9.3°
3
0%
08:00
14°
1012.8 hPa 11.3 mm 10.6°
3
0%
11:00
18°
1012.0 hPa 11.3 mm 12.2°
3
1%
14:00
22°
1010.5 hPa 11.3 mm 13.4°
4
1%
17:00
23°
1009.1 hPa 11.3 mm 14.0°
5
1%
20:00
20°
1008.3 hPa 11.8 mm 15.8°
3
1%
23:00
15°
1009.1 hPa 12.1 mm 14.4°
3
1%
 06:11     21:27    Daglengte: 15:16 Zaterdag 31 Jul
02:00
14°
1009.0 hPa 13.5 mm 13.7°
3
1%
05:00
12°
1008.0 hPa 13.5 mm 11.0°
3
0%
08:00
14°
1007.4 hPa 13.5 mm 12.5°
6
0%
11:00
16°
1006.9 hPa 13.6 mm 12.9°
9
0%
14:00
16°
1007.2 hPa 14.5 mm 13.2°
9
1%
17:00
19°
1007.4 hPa 15.5 mm 13.2°
8
0%
20:00
17°
1008.8 hPa 16.2 mm 13.6°
6
0%
23:00
13°
1009.9 hPa 16.2 mm 12.5°
4
0%
 06:12     21:25    Daglengte: 15:13 Zondag 01 Aug
02:00
13°
1009.6 hPa 16.2 mm 11.4°
4
0%
05:00
12°
1008.8 hPa 16.2 mm 10.9°
5
0%
08:00
14°
1008.7 hPa 16.2 mm 12.2°
5
1%
11:00
17°
1008.9 hPa 16.5 mm 12.2°
6
1%
14:00
18°
1009.6 hPa 16.9 mm 10.7°
6
1%
17:00
18°
1010.4 hPa 17.4 mm 10.5°
6
1%
20:00
15°
1011.5 hPa 17.5 mm 12.1°
5
1%
23:00
12°
1013.6 hPa 17.7 mm 10.6°
2
1%
 06:14     21:23    Daglengte: 15:09 Maandag 02 Aug
02:00
11°
1014.8 hPa 17.7 mm 9.6°
2
0%
05:00
10°
Voelt als: 9.2°
1015.3 hPa 17.7 mm 9.0°
2
0%
08:00
12°
1016.1 hPa 17.7 mm 10.3°
2
0%
11:00
16°
1016.7 hPa 17.7 mm 11.3°
2
1%
14:00
18°
1016.2 hPa 35.7 mm 10.9°
1
1%
20:00
17°
1015.6 hPa 39.3 mm 13.5°
2
1%
 06:15     21:22    Daglengte: 15:07 Dinsdag 03 Aug
02:00
11°
1016.5 hPa 40.2 mm 10.0°
1
0%
08:00
12°
1017.5 hPa 40.2 mm 10.7°
2
1%
14:00
20°
1016.7 hPa 40.2 mm 10.2°
3
0%
20:00
18°
1015.6 hPa 40.2 mm 13.1°
3
1%
 06:17     21:20    Daglengte: 15:03 Woensdag 04 Aug
02:00
14°
1014.8 hPa 40.2 mm 9.4°
3
1%
08:00
15°
1013.4 hPa 40.2 mm 10.6°
5
1%
14:00
21°
1011.9 hPa 40.2 mm 13.6°
7
1%
20:00
19°
1011.2 hPa 40.6 mm 14.5°
5
1%
 06:18     21:18    Daglengte: 15:00 Donderdag 05 Aug
02:00
13°
1012.0 hPa 41.0 mm 11.4°
4
0%
08:00
14°
1010.6 hPa 41.0 mm 11.8°
4
1%
14:00
20°
1010.9 hPa 0.5 mm 11.2°
4
78%
20:00
19°
1009.2 hPa 1.7 mm 11.9°
3
73%
 06:19     21:17    Daglengte: 14:58 Vrijdag 06 Aug
02:00
15°
1009.2 hPa 0.7 mm 11.1°
3
73%
08:00
15°
1009.1 hPa 0.7 mm 11.0°
3
72%
14:00
19°
1009.0 hPa 0.4 mm 10.7°
4
73%
20:00
19°
1013.4 hPa 1.3 mm 10.8°
3
49%
 06:21     21:15    Daglengte: 14:54 Zaterdag 07 Aug
02:00
15°
1014.5 hPa 0.3 mm 10.4°
3
46%
08:00
14°
1014.1 hPa 0.6 mm 10.8°
3
53%
14:00
20°
1013.8 hPa 1.1 mm 11.1°
4
53%
20:00
19°
1013.3 hPa 1.7 mm 11.7°
3
58%
 06:22     21:13    Daglengte: 14:51 Zondag 08 Aug
02:00
15°
1014.2 hPa 0.8 mm 11.4°
3
58%
08:00
15°
1014.1 hPa 0.5 mm 11.5°
3
61%
14:00
20°
1014.3 hPa 0.6 mm 11.7°
4
65%
20:00
19°
1014.2 hPa 1.4 mm 11.6°
3
65%
 06:24     21:12    Daglengte: 14:48 Maandag 09 Aug
02:00
15°
1015.9 hPa 0.3 mm 10.5°
2
44%
08:00
14°
1016.5 hPa 0.3 mm 10.7°
2
43%
14:00
21°
1017.0 hPa 0.5 mm 10.6°
3
45%
20:00
20°
1016.6 hPa 0.8 mm 11.5°
2
53%
 06:25     21:10    Daglengte: 14:45 Dinsdag 10 Aug
02:00
15°
1017.8 hPa 0.3 mm 10.7°
2
48%
08:00
15°
1017.9 hPa 0.1 mm 10.9°
2
47%
14:00
21°
1017.9 hPa 0.4 mm 11.4°
3
55%
  CAPE Lifted Index Hail Supercell Tornado SRH 3km CL BTM PRES CL TOP PRES Swiss DWD icon SMHI TS
 06:04     21:34    Daglengte: 15:30 Vandaag
15:00 663 J/kg -1.9 K 0 % 0 % 0 % 0 m²/s² 0 0 -1.3 80
16:00 684 J/kg -2.0 K 0 % 0 % 0 % 0 m²/s² 0 0 -1.34 80
17:00 332 J/kg -1.5 K 0 % 0 % 0 % 0 m²/s² 0 0 -0.99 80
18:00 39 J/kg 0.2 K 0 % 0 % 0 % 0 m²/s² 0 0 0.2 80
19:00 295 J/kg -1.6 K 0 % 0 % 0 % 0 m²/s² 0 0 -0.85 95
20:00 737 J/kg -3.0 K 0 % 0 % 0 % 0 m²/s² 0 0 -2.31 80
21:00 747 J/kg -2.9 K 0 % 0 % 0 % 0 m²/s² 0 0 -1.85 80
22:00 813 J/kg -3.4 K 0 % 0 % 0 % 0 m²/s² 0 0 -2.2 80
23:00 604 J/kg -2.5 K 0 % 0 % 0 % 0 m²/s² 0 0 -0.37 3
 06:05     21:33    Daglengte: 15:28 Morgen
00:00 341 J/kg -1.9 K 0 % 0 % 0 % 0 m²/s² 0 0 0.59 3
01:00 106 J/kg -0.7 K 0 % 0 % 0 % 0 m²/s² 0 0 2.09 2
02:00 0 J/kg 0.0 K 0 % 0 % 0 % 0 m²/s² 0 0 3.36 2
03:00 21 J/kg -1.7 K 0 % 0 % 0 % 0 m²/s² 0 0 2.05 2
04:00 34 J/kg -2.0 K 0 % 0 % 0 % 0 m²/s² 0 0 1.84 3
05:00 55 J/kg -2.6 K 0 % 0 % 0 % 0 m²/s² 0 0 1.54 3
06:00 79 J/kg -3.2 K 0 % 0 % 0 % 0 m²/s² 0 0 0.64 3
07:00 121 J/kg -2.5 K 0 % 0 % 0 % 0 m²/s² 0 0 0.2 3
08:00 230 J/kg -1.5 K 0 % 0 % 0 % 0 m²/s² 0 0 0.48 3
09:00 386 J/kg -1.8 K 0 % 0 % 0 % 0 m²/s² 0 0 -1.11 3
10:00 411 J/kg -1.8 K 0 % 0 % 0 % 0 m²/s² 0 0 -1.5 3
11:00 503 J/kg -2.1 K 0 % 0 % 0 % 0 m²/s² 0 0 -1.89 3
12:00 545 J/kg -2.3 K 0 % 0 % 0 % 0 m²/s² 0 0 -2 3
13:00 523 J/kg -1.8 K 0 % 0 % 0 % 0 m²/s² 0 0 -1.56 80
14:00 317 J/kg -1.0 K 0 % 0 % 0 % 0 m²/s² 0 0 -0.4 80
15:00 399 J/kg -1.3 K 0 % 0 % 0 % 0 m²/s² 0 0 -0.91 3
16:00 215 J/kg -0.3 K 0 % 0 % 0 % 0 m²/s² 0 0 0.12 3
17:00 191 J/kg -0.1 K 0 % 0 % 0 % 0 m²/s² 0 0 0.47 3
18:00 154 J/kg 0.0 K 0 % 0 % 0 % 0 m²/s² 0 0 0.33 3
19:00 247 J/kg -1.0 K 0 % 0 % 0 % 0 m²/s² 0 0 -0.1 61
20:00 340 J/kg -1.5 K 0 % 0 % 0 % 0 m²/s² 0 0 -0.99 3
21:00 365 J/kg -1.9 K 0 % 0 % 0 % 0 m²/s² 0 0 -1.24 3
22:00 440 J/kg -1.7 K 0 % 0 % 0 % 0 m²/s² 0 0 -1.22 3
23:00 125 J/kg -1.0 K 0 % 0 % 0 % 0 m²/s² 0 0 0.41 3
 06:07     21:31    Daglengte: 15:24 Woensdag 28 Jul
00:00 44 J/kg 0.1 K 0 % 0 % 0 % 0 m²/s² 0 0 1.45 3
01:00 25 J/kg 0.1 K 0 % 0 % 0 % 0 m²/s² 0 0 1.57 3
02:00 57 J/kg -0.6 K 0 % 0 % 0 % 0 m²/s² 0 0 1.41 3
03:00 53 J/kg -0.2 K 0 % 0 % 0 % 0 m²/s² 0 0 1.75 3
04:00 0 J/kg 1.9 K 0 % 0 % 0 % 0 m²/s² 0 0 3.76 3
05:00 0 J/kg 3.0 K 0 % 0 % 0 % 0 m²/s² 0 0 5.01 80
06:00 0 J/kg 2.0 K 0 % 0 % 0 % 0 m²/s² 0 0 4.4 3
07:00 0 J/kg 2.0 K 0 % 0 % 0 % 0 m²/s² 0 0 4.07 3
08:00 0 J/kg 3.1 K 0 % 0 % 0 % 0 m²/s² 0 0 5.71 3
09:00 2 J/kg 3.8 K 0 % 0 % 0 % 0 m²/s² 0 0 7.37 2
10:00 5 J/kg 2.9 K 0 % 0 % 0 % 0 m²/s² 0 0 6.56 2
11:00 45 J/kg 2.3 K 0 % 0 % 0 % 0 m²/s² 0 0 5.78 2
12:00 81 J/kg 1.8 K 0 % 0 % 0 % 0 m²/s² 0 0 4.44 3
13:00 89 J/kg 1.7 K 0 % 0 % 0 % 0 m²/s² 0 0 4.64 3
14:00 131 J/kg 1.3 K 0 % 0 % 0 % 0 m²/s² 0 0 4.57 2
15:00 126 J/kg 1.1 K 0 % 0 % 0 % 0 m²/s² 0 0 4.64 2
16:00 90 J/kg 1.4 K 0 % 0 % 0 % 0 m²/s² 0 0 4.85 2
17:00 65 J/kg 2.2 K 0 % 0 % 0 % 0 m²/s² 0 0 5.74 3
18:00 114 J/kg 1.7 K 0 % 0 % 0 % 0 m²/s² 0 0 5.24 2
19:00 120 J/kg 2.2 K 0 % 0 % 0 % 0 m²/s² 0 0 5.47 2
20:00 124 J/kg 2.8 K 0 % 0 % 0 % 0 m²/s² 0 0 5.65 2
21:00 124 J/kg 3.2 K 0 % 0 % 0 % 0 m²/s² 0 0 6.56 3
22:00 108 J/kg 3.7 K 0 % 0 % 0 % 0 m²/s² 0 0 6.7 2
23:00 31 J/kg 4.2 K 0 % 0 % 0 % 0 m²/s² 0 0 7.38 3
 06:08     21:30    Daglengte: 15:22 Donderdag 29 Jul
00:00 0 J/kg 4.8 K 0 % 0 % 0 % 0 m²/s² 0 0 7.47 2
01:00 0 J/kg 5.2 K 0 % 0 % 0 % 0 m²/s² 0 0 9.43 2
02:00 0 J/kg 6.2 K 0 % 0 % 0 % 0 m²/s² 0 0 11.84 2
03:00 0 J/kg 7.9 K 0 % 0 % 0 % 0 m²/s² 0 0 15.07 3
04:00 0 J/kg 8.9 K 0 % 0 % 0 % 0 m²/s² 0 0 16.07 3
05:00 38 J/kg 8.5 K 0 % 0 % 0 % 0 m²/s² 0 0 15.22 3
06:00 58 J/kg 8.8 K 0 % 0 % 0 % 0 m²/s² 0 0 15.52 3
07:00 47 J/kg 9.5 K 0 % 0 % 0 % 0 m²/s² 0 0 15.59 2
08:00 51 J/kg 9.5 K 0 % 0 % 0 % 0 m²/s² 0 0 14.69 3
09:00 85 J/kg 9.0 K 0 % 0 % 0 % 0 m²/s² 0 0 14.04 3
10:00 81 J/kg 8.4 K 0 % 0 % 0 % 0 m²/s² 0 0 15.06 3
11:00 86 J/kg 8.3 K 0 % 0 % 0 % 0 m²/s² 0 0 14.51 3
12:00 51 J/kg 8.2 K 0 % 0 % 0 % 0 m²/s² 0 0 13.9 3
13:00 28 J/kg 7.5 K 0 % 0 % 0 % 0 m²/s² 0 0 12.63 3
14:00 56 J/kg 6.0 K 0 % 0 % 0 % 0 m²/s² 0 0 10.86 3
Temp Baro Wind Neerslag
  EWN Forecast EWN WRFDA DWD ICON FMI HIRLAM MET Norway GFS
 06:04     21:34    Daglengte: 15:30 Vandaag
17:00 19.5° 1011.0 hPa 4.3 m/s 1.0 mm 18.2° 1010.6 hPa 7.1 m/s 1.0 mm 19.5° 1011.2 hPa 3.8 m/s 0.2 mm 22.0° 1009.8 hPa 6.0 m/s 0.0 mm 19.3° 1011.1 hPa 5.4 m/s
20:00 18.5° 1011.1 hPa 3.0 m/s 2.5 mm 20.2° 1010.2 hPa 3.6 m/s 3.8 mm 17.9° 1011.4 hPa 2.9 m/s 3.4 mm 19.8° 1010.1 hPa 4.0 m/s 0.0 mm 18.5° 1011.1 hPa 4.2 m/s
23:00 16.8° 1012.5 hPa 3.4 m/s 1.0 mm 17.8° 1011.0 hPa 3.6 m/s 3.9 mm 16.5° 1012.9 hPa 2.2 m/s 0.9 mm 18.0° 1011.8 hPa 3.7 m/s 0.0 mm 15.7° 1012.0 hPa 3.1 m/s
 06:05     21:33    Daglengte: 15:28 Morgen
02:00 15.7° 1012.6 hPa 2.4 m/s 0.0 mm 15.4° 1011.0 hPa 3.3 m/s 4.0 mm 15.5° 1013.0 hPa 2.2 m/s 0.0 mm 15.8° 1011.9 hPa 2.2 m/s 0.0 mm 14.5° 1012.5 hPa 3.0 m/s
05:00 15.6° 1011.9 hPa 3.2 m/s 0.0 mm 15.3° 1010.3 hPa 3.3 m/s 4.0 mm 15.3° 1012.3 hPa 2.4 m/s 0.0 mm 15.6° 1011.2 hPa 3.2 m/s 0.0 mm 14.2° 1011.9 hPa 3.0 m/s
08:00 16.6° 1011.6 hPa 3.2 m/s 0.0 mm 16.8° 1010.4 hPa 2.8 m/s 4.0 mm 16.6° 1012.3 hPa 2.8 m/s 0.0 mm 16.5° 1011.1 hPa 3.3 m/s 0.0 mm 15.7° 1011.5 hPa 2.9 m/s
11:00 19.3° 1011.9 hPa 3.9 m/s 0.0 mm 20.6° 1011.2 hPa 3.8 m/s 4.0 mm 19.1° 1012.2 hPa 4.2 m/s 0.1 mm 21.1° 1010.9 hPa 3.9 m/s 0.0 mm 18.5° 1011.5 hPa 3.7 m/s
14:00 19.5° 1011.3 hPa 4.6 m/s 2.1 mm 20.4° 1011.0 hPa 6.1 m/s 5.0 mm 19.2° 1012.0 hPa 3.3 m/s 0.9 mm 20.6° 1010.2 hPa 5.9 m/s 0.0 mm 19.5° 1011.2 hPa 5.2 m/s
17:00 19.5° 1010.7 hPa 5.0 m/s 0.0 mm 22.1° 1009.7 hPa 5.3 m/s 5.6 mm 19.1° 1011.3 hPa 4.4 m/s 0.0 mm 20.2° 1009.5 hPa 5.7 m/s 0.0 mm 21.0° 1010.4 hPa 5.7 m/s
20:00 18.1° 1010.5 hPa 4.3 m/s 0.0 mm 21.0° 1009.2 hPa 4.4 m/s 6.0 mm 17.6° 1011.1 hPa 3.6 m/s 0.1 mm 19.2° 1009.8 hPa 4.3 m/s 0.0 mm 16.6° 1010.5 hPa 5.1 m/s
23:00 16.4° 1011.1 hPa 3.6 m/s 0.0 mm 17.2° 1009.8 hPa 3.4 m/s 7.7 mm 16.2° 1011.1 hPa 3.4 m/s 0.0 mm 17.4° 1011.4 hPa 3.5 m/s 0.0 mm 15.1° 1011.7 hPa 4.6 m/s
 06:07     21:31    Daglengte: 15:24 Woensdag 28 Jul
02:00 16.0° 1010.6 hPa 3.6 m/s 0.0 mm 15.9° 1009.3 hPa 4.5 m/s 8.3 mm 16.0° 1009.9 hPa 3.4 m/s 0.0 mm 16.3° 1011.2 hPa 2.8 m/s 0.0 mm 14.5° 1010.8 hPa 5.0 m/s
05:00 15.4° 1010.2 hPa 4.0 m/s 0.0 mm 14.3° 1009.1 hPa 3.5 m/s 8.3 mm 15.6° 1009.7 hPa 3.4 m/s 0.2 mm 15.7° 1011.1 hPa 4.0 m/s 0.0 mm 14.9° 1010.7 hPa 5.0 m/s
08:00 15.0° 1010.8 hPa 5.4 m/s 0.0 mm 14.6° 1009.9 hPa 5.1 m/s 8.3 mm 15.3° 1010.1 hPa 5.3 m/s 0.1 mm 14.7° 1011.8 hPa 5.6 m/s 0.0 mm 14.3° 1011.3 hPa 5.8 m/s
11:00 16.9° 1010.9 hPa 6.2 m/s 1.1 mm 18.4° 1009.5 hPa 6.9 m/s 8.3 mm 16.9° 1011.5 hPa 6.2 m/s 0.0 mm 17.5° 1011.4 hPa 7.7 m/s
14:00 19.0° 1010.7 hPa 6.6 m/s 2.4 mm 20.1° 1010.0 hPa 6.8 m/s 8.3 mm 19.1° 1010.7 hPa 6.2 m/s 0.0 mm 19.7° 1011.7 hPa 7.7 m/s
17:00 20.8° 1010.5 hPa 6.5 m/s 1.0 mm 22.1° 1009.6 hPa 7.5 m/s 8.3 mm 21.1° 1010.6 hPa 6.1 m/s 0.0 mm 19.6° 1011.2 hPa 7.2 m/s
20:00 19.0° 1010.3 hPa 4.4 m/s 3.1 mm 20.8° 1009.0 hPa 5.6 m/s 8.3 mm 19.1° 1010.5 hPa 4.4 m/s 0.1 mm 17.9° 1010.4 hPa 5.6 m/s
23:00 16.0° 1010.9 hPa 4.2 m/s 2.4 mm 16.1° 1009.8 hPa 4.3 m/s 8.3 mm 16.4° 1011.1 hPa 2.7 m/s 0.0 mm 15.4° 1010.8 hPa 5.2 m/s
 06:08     21:30    Daglengte: 15:22 Donderdag 29 Jul
02:00 14.7° 1010.8 hPa 4.6 m/s 2.1 mm 15.3° 1009.2 hPa 4.5 m/s 8.3 mm 14.9° 1011.4 hPa 3.5 m/s 0.0 mm 14.3° 1010.9 hPa 6.3 m/s
05:00 14.1° 1010.2 hPa 5.1 m/s 2.2 mm 14.8° 1009.0 hPa 4.9 m/s 8.5 mm 14.1° 1011.8 hPa 4.4 m/s 0.0 mm 12.1° 1011.4 hPa 6.0 m/s
08:00 13.8° 1011.0 hPa 6.3 m/s 0.0 mm 14.4° 1009.4 hPa 6.7 m/s 8.5 mm 13.8° 1012.7 hPa 4.7 m/s 0.0 mm 12.6° 1012.0 hPa 6.5 m/s
11:00 16.3° 1012.7 hPa 5.4 m/s 0.0 mm 16.9° 1010.3 hPa 7.6 m/s 8.5 mm 16.1° 1013.3 hPa 4.9 m/s 0.0 mm 16.4° 1013.1 hPa 8.0 m/s
14:00 18.6° 1012.7 hPa 5.8 m/s 2.9 mm 19.7° 1010.6 hPa 8.4 m/s 8.5 mm 18.3° 1013.2 hPa 5.1 m/s 0.1 mm 18.0° 1013.5 hPa 7.2 m/s
17:00 19.8° 1012.9 hPa 6.1 m/s 11.2 mm 19.8° 1012.9 hPa 6.1 m/s 11.2 mm
20:00 17.3° 1013.0 hPa 4.5 m/s 11.3 mm 17.3° 1013.0 hPa 4.5 m/s 11.3 mm
23:00 13.3° 1013.6 hPa 3.0 m/s 11.3 mm 13.3° 1013.6 hPa 3.0 m/s 11.3 mm
 06:09     21:28    Daglengte: 15:19 Vrijdag 30 Jul
02:00 12.0° 1013.5 hPa 3.1 m/s 11.3 mm 12.0° 1013.5 hPa 3.1 m/s 11.3 mm
05:00 11.0° 1013.2 hPa 3.1 m/s 11.3 mm 11.0° 1013.2 hPa 3.1 m/s 11.3 mm
08:00 13.6° 1012.8 hPa 2.7 m/s 11.3 mm 13.6° 1012.8 hPa 2.7 m/s 11.3 mm
11:00 18.4° 1012.0 hPa 3.3 m/s 11.3 mm 18.4° 1012.0 hPa 3.3 m/s 11.3 mm
14:00 21.9° 1010.5 hPa 3.7 m/s 11.3 mm 21.9° 1010.5 hPa 3.7 m/s 11.3 mm
17:00 22.9° 1009.1 hPa 4.5 m/s 11.3 mm 22.9° 1009.1 hPa 4.5 m/s 11.3 mm
20:00 20.1° 1008.3 hPa 3.0 m/s 11.8 mm 20.1° 1008.3 hPa 3.0 m/s 11.8 mm
23:00 15.4° 1009.1 hPa 2.6 m/s 12.1 mm 15.4° 1009.1 hPa 2.6 m/s 12.1 mm
 06:11     21:27    Daglengte: 15:16 Zaterdag 31 Jul
02:00 14.2° 1009.0 hPa 2.7 m/s 13.5 mm 14.2° 1009.0 hPa 2.7 m/s 13.5 mm
05:00 12.1° 1008.0 hPa 3.2 m/s 13.5 mm 12.1° 1008.0 hPa 3.2 m/s 13.5 mm
08:00 13.9° 1007.4 hPa 5.9 m/s 13.5 mm 13.9° 1007.4 hPa 5.9 m/s 13.5 mm
11:00 15.9° 1006.9 hPa 8.9 m/s 13.6 mm 15.9° 1006.9 hPa 8.9 m/s 13.6 mm
14:00 15.6° 1007.2 hPa 9.3 m/s 14.5 mm 15.6° 1007.2 hPa 9.3 m/s 14.5 mm
17:00 18.7° 1007.4 hPa 7.9 m/s 15.5 mm 18.7° 1007.4 hPa 7.9 m/s 15.5 mm
20:00 16.8° 1008.8 hPa 5.6 m/s 16.2 mm 16.8° 1008.8 hPa 5.6 m/s 16.2 mm
23:00 13.5° 1009.9 hPa 3.6 m/s 16.2 mm 13.5° 1009.9 hPa 3.6 m/s 16.2 mm
 06:12     21:25    Daglengte: 15:13 Zondag 01 Aug
02:00 12.6° 1009.6 hPa 4.2 m/s 16.2 mm 12.6° 1009.6 hPa 4.2 m/s 16.2 mm
05:00 12.0° 1008.8 hPa 4.6 m/s 16.2 mm 12.0° 1008.8 hPa 4.6 m/s 16.2 mm
08:00 13.5° 1008.7 hPa 4.9 m/s 16.2 mm 13.5° 1008.7 hPa 4.9 m/s 16.2 mm
11:00 16.5° 1008.9 hPa 6.5 m/s 16.5 mm 16.5° 1008.9 hPa 6.5 m/s 16.5 mm
14:00 17.5° 1009.6 hPa 6.1 m/s 16.9 mm 17.5° 1009.6 hPa 6.1 m/s 16.9 mm
17:00 17.7° 1010.4 hPa 6.4 m/s 17.4 mm 17.7° 1010.4 hPa 6.4 m/s 17.4 mm
20:00 15.1° 1011.5 hPa 4.8 m/s 17.5 mm 15.1° 1011.5 hPa 4.8 m/s 17.5 mm
23:00 12.0° 1013.6 hPa 2.3 m/s 17.7 mm 12.0° 1013.6 hPa 2.3 m/s 17.7 mm
 06:14     21:23    Daglengte: 15:09 Maandag 02 Aug
02:00 10.6° 1014.8 hPa 1.8 m/s 17.7 mm 10.6° 1014.8 hPa 1.8 m/s 17.7 mm
05:00 9.8° 1015.3 hPa 1.7 m/s 17.7 mm 9.8° 1015.3 hPa 1.7 m/s 17.7 mm
08:00 11.9° 1016.1 hPa 1.7 m/s 17.7 mm 11.9° 1016.1 hPa 1.7 m/s 17.7 mm
11:00 15.6° 1016.7 hPa 1.8 m/s 17.7 mm 15.6° 1016.7 hPa 1.8 m/s 17.7 mm
14:00 18.4° 1016.2 hPa 0.6 m/s 18.0 mm 18.4° 1016.2 hPa 0.6 m/s 18.0 mm
20:00 16.5° 1015.6 hPa 1.5 m/s 20.1 mm 16.5° 1015.6 hPa 1.5 m/s 20.1 mm
 06:15     21:22    Daglengte: 15:07 Dinsdag 03 Aug
02:00 11.5° 1016.5 hPa 1.4 m/s 20.1 mm 11.5° 1016.5 hPa 1.4 m/s 20.1 mm
08:00 12.2° 1017.5 hPa 2.4 m/s 20.1 mm 12.2° 1017.5 hPa 2.4 m/s 20.1 mm
14:00 19.7° 1016.7 hPa 3.1 m/s 20.1 mm 19.7° 1016.7 hPa 3.1 m/s 20.1 mm
20:00 18.3° 1015.6 hPa 3.0 m/s 20.1 mm 18.3° 1015.6 hPa 3.0 m/s 20.1 mm
 06:17     21:20    Daglengte: 15:03 Woensdag 04 Aug
02:00 13.7° 1014.8 hPa 3.4 m/s 20.1 mm 13.7° 1014.8 hPa 3.4 m/s 20.1 mm
08:00 14.8° 1013.4 hPa 4.5 m/s 20.1 mm 14.8° 1013.4 hPa 4.5 m/s 20.1 mm
14:00 21.1° 1011.9 hPa 6.9 m/s 20.1 mm 21.1° 1011.9 hPa 6.9 m/s 20.1 mm
20:00 18.6° 1011.2 hPa 5.3 m/s 20.4 mm 18.6° 1011.2 hPa 5.3 m/s 20.4 mm
 06:18     21:18    Daglengte: 15:00 Donderdag 05 Aug
02:00 13.3° 1012.0 hPa 4.4 m/s 20.5 mm 13.3° 1012.0 hPa 4.4 m/s 20.5 mm
08:00 13.6° 1010.6 hPa 4.5 m/s 20.5 mm 13.6° 1010.6 hPa 4.5 m/s 20.5 mm
14:00 20.2° 1010.9 hPa 4.2 m/s 0.5 mm
20:00 19.0° 1009.2 hPa 2.6 m/s 1.7 mm
 06:19     21:17    Daglengte: 14:58 Vrijdag 06 Aug
02:00 15.3° 1009.2 hPa 2.5 m/s 0.7 mm
08:00 14.6° 1009.1 hPa 3.4 m/s 0.7 mm
14:00 19.3° 1009.0 hPa 4.0 m/s 0.4 mm
20:00 18.9° 1013.4 hPa 3.4 m/s 1.3 mm
 06:21     21:15    Daglengte: 14:54 Zaterdag 07 Aug
02:00 14.7° 1014.5 hPa 2.7 m/s 0.3 mm
08:00 14.4° 1014.1 hPa 3.3 m/s 0.6 mm
14:00 20.0° 1013.8 hPa 4.3 m/s 1.1 mm
20:00 18.8° 1013.3 hPa 3.1 m/s 1.7 mm
 06:22     21:13    Daglengte: 14:51 Zondag 08 Aug
02:00 15.3° 1014.2 hPa 2.6 m/s 0.8 mm
08:00 14.9° 1014.1 hPa 3.2 m/s 0.5 mm
14:00 20.2° 1014.3 hPa 3.8 m/s 0.6 mm
20:00 19.2° 1014.2 hPa 2.7 m/s 1.4 mm
 06:24     21:12    Daglengte: 14:48 Maandag 09 Aug
02:00 15.1° 1015.9 hPa 2.1 m/s 0.3 mm
08:00 14.5° 1016.5 hPa 2.5 m/s 0.3 mm
14:00 20.8° 1017.0 hPa 3.2 m/s 0.5 mm
20:00 19.6° 1016.6 hPa 2.3 m/s 0.8 mm
 06:25     21:10    Daglengte: 14:45 Dinsdag 10 Aug
02:00 15.4° 1017.8 hPa 1.7 m/s 0.3 mm
08:00 15.1° 1017.9 hPa 2.0 m/s 0.1 mm
14:00 21.4° 1017.9 hPa 3.0 m/s 0.4 mm
FMI Hirlam - 7.5 km EWN WRFDA - 12 km DWD ICON - 7 km GFS - 25 km Basiskaart






























































Updatetijd (Europe/Amsterdam) Resolutie Lengte Stap
FMI Hirlam 14:00, 20:00, 02:00, 08:00 7.5 km 49h 1h
EWN WRFDA 10:30, 16:30, 22:30, 04:30 12 km 73h 1h
DWD ICON 11:45, 17:45, 23:45, 05:45 7 km 75h 1h
GFS 14:15, 20:15, 02:15, 08:15 25 km 237h 3h
30+ mm
25-30 mm
20-25 mm
15-20 mm
10-15 mm
6-10 mm
4-6 mm
2-4 mm
1-2 mm
0.5-1 mm
0.2-0.5 mm
0.1-0.2 mm
30+ mm
25-30 mm
20-25 mm
15-20 mm
10-15 mm
6-10 mm
4-6 mm
2-4 mm
1-2 mm
0.5-1 mm
0.2-0.5 mm
0.1-0.2 mm
Sneeuwval
Natte sneeuw
Hagel
Vorst
30+ mm
25-30 mm
20-25 mm
15-20 mm
10-15 mm
6-10 mm
4-6 mm
2-4 mm
1-2 mm
0.5-1 mm
0.2-0.5 mm
0.1-0.2 mm
Sneeuwval
Natte sneeuw
Hagel
Vorst
Onweer
50 mm
40 mm
30 mm
26 mm
22 mm
18 mm
14 mm
10 mm
9 mm
8 mm
7 mm
6 mm
5 mm
4.5 mm
4 mm
3.5 mm
3 mm
2.5 mm
2 mm
1.5 mm
1 mm
0.8 mm
0.6 mm
0.4 mm
0.2 mm
0.05 mm
35°
30°
25°
20°
15°
10°